Weather in Kalininaul

Russia / Republic of Dagestan     43°04′18″N   46°33′58″E
temp.,
°C
wind,
m/s
gust,
m/s
humid.,
%
clouds,
%
prec.,
mm/h
press.,
hPa
HPBL,
m
31 july, sat
sat3100:00+17s32520 0.0 101120
03:00+17s22541 0.0 101216
06:00+18s21564 0.0 101218
09:00+23nne22391 0.0 1011903
12:00+26nne32380 0.0 10101566
15:00+26nne3237100 0.0 10101878
18:00+22n1256100 0.0 101151
21:00+19ssw336291 0.0 101334
1 august, sun
sun100:00+18s32605 0.0 101329
03:00+18s32615 0.0 101324
06:00+19s22635 0.0 101322
09:00+24nne22463 0.0 10131115
12:00+27nne334349 0.5 10121848
15:00+27ne324534 1.4 10111806
18:00+24ne1258100 0.2 101194
21:00+20ssw3269100 0.3 101332
2 august, mon
mon200:00+20s3266100 0.0 101232
03:00+19s2267100 0.1 101223
06:00+20s226892 0.1 101328
09:00+25nne1251100 0.1 1013944
12:00+28ne233697 0.3 10122126
15:00+26sse334791 0.6 1011920
18:00+22s2258100 0.2 101236
21:00+20s325999 0.2 101429
3 august, tue
tue300:00+19s325934 0.0 101325
03:00+19s325744 0.0 101329
06:00+20s225730 0.0 101430
09:00+26nne21405 0.0 10131021
12:00+29nne433543 0.0 10122391
15:00+25se225381 0.3 1013375
18:00+26w11534 0.0 101330
21:00+21s33580 0.0 101537
4 august, wed
wed400:00+21s33570 0.0 101537
03:00+20s33590 0.0 101536
06:00+21s33595 0.0 101640
09:00+28n22400 0.0 10151603
12:00+29nnw334087 0.1 10142239
15:00+27nnw024962 0.3 1014656
18:00+25sw224897 0.0 101525
21:00+23s334764 0.1 101640